Location: *
(51.1248°S, 108.4023°W)
Time: 06:40:52
(UTC+00:00)

Envisat - Pass Details

Date: 26 September 2021
Orbit: 764 x 766 km, 98.2° (Epoch: 25 October)

Event Time Altitude Azimuth Distance (km) Brightness Sun altitude
Rises 02:26:26 0° 177° (S) 3,279 6.5 -11.6°
Reaches altitude 10° 02:29:37 10° 197° (SSW) 2,345 6.0 -12.1°
Maximum altitude 02:32:37 16° 233° (SW) 1,960 6.2 -12.5°
Drops below altitude 10° 02:35:37 10° 269° (W) 2,331 6.8 -13.0°
Sets 02:38:47 0° 290° (WNW) 3,250 7.1 -13.4°
